GBKIJ EGKA-EGHN

Flight info

Callsign GBKIJ
Flight time 0h 23m
Altitude 2500
Route VFR
Aircraft C172/L-SFG/C

Departure

Time 2026-04-27 20:18
Airport Brighton City Airport (EGKA)

Arrival

Time 2026-04-27 20:42
Airport Isle of Wight/Sandown Airport (EGHN)
Time Latitude Longitude Altitude Speed Heading
2026-04-27 19:52 50.83440 -0.28916 3 ft 0 kts 255°
2026-04-27 20:12 50.83439 -0.28924 3 ft 4 kts 253°
2026-04-27 20:12 50.83488 -0.28956 3 ft 13 kts 40°
2026-04-27 20:12 50.83537 -0.28821 3 ft 15 kts 18°
2026-04-27 20:12 50.83627 -0.28860 4 ft 13 kts 311°
2026-04-27 20:13 50.83679 -0.28978 3 ft 15 kts 306°
2026-04-27 20:13 50.83744 -0.29126 3 ft 18 kts 307°
2026-04-27 20:13 50.83820 -0.29296 3 ft 18 kts 312°
2026-04-27 20:13 50.83923 -0.29333 3 ft 11 kts
2026-04-27 20:14 50.83930 -0.29348 3 ft 0 kts 188°
2026-04-27 20:15 50.83924 -0.29340 3 ft 6 kts 93°
2026-04-27 20:15 50.83961 -0.29333 3 ft 0 kts 342°
2026-04-27 20:17 50.83967 -0.29338 3 ft 5 kts 315°
2026-04-27 20:17 50.83981 -0.29394 3 ft 8 kts 294°
2026-04-27 20:17 50.83953 -0.29483 3 ft 15 kts 202°
2026-04-27 20:17 50.83815 -0.29571 5 ft 48 kts 201°
2026-04-27 20:18 50.83243 -0.29912 154 ft 70 kts 202°
2026-04-27 20:18 50.82782 -0.30185 358 ft 70 kts 200°
2026-04-27 20:18 50.82324 -0.30465 550 ft 72 kts 208°
2026-04-27 20:18 50.81938 -0.30961 739 ft 72 kts 234°
2026-04-27 20:19 50.81703 -0.31687 885 ft 80 kts 247°
2026-04-27 20:19 50.81445 -0.32588 969 ft 93 kts 249°
2026-04-27 20:19 50.81250 -0.33537 1130 ft 92 kts 256°
2026-04-27 20:19 50.81048 -0.34531 1252 ft 95 kts 255°
2026-04-27 20:20 50.80865 -0.35510 1418 ft 92 kts 259°
2026-04-27 20:20 50.80737 -0.36508 1539 ft 95 kts 263°
2026-04-27 20:20 50.80610 -0.37596 1592 ft 103 kts 263°
2026-04-27 20:20 50.80514 -0.38727 1676 ft 105 kts 273°
2026-04-27 20:21 50.80607 -0.39870 1760 ft 106 kts 279°
2026-04-27 20:21 50.80662 -0.41057 1858 ft 110 kts 277°
2026-04-27 20:21 50.80715 -0.42262 1949 ft 112 kts 277°
2026-04-27 20:21 50.80767 -0.43481 2024 ft 108 kts 278°
2026-04-27 20:22 50.80817 -0.44652 2093 ft 105 kts 278°
2026-04-27 20:22 50.80870 -0.45791 2164 ft 103 kts 279°
2026-04-27 20:22 50.80924 -0.46908 2237 ft 100 kts 280°
2026-04-27 20:22 50.80974 -0.48001 2316 ft 99 kts 279°
2026-04-27 20:23 50.81021 -0.49090 2450 ft 101 kts 279°
2026-04-27 20:23 50.81080 -0.50233 2501 ft 107 kts 280°
2026-04-27 20:23 50.81139 -0.51416 2501 ft 109 kts 279°
2026-04-27 20:23 50.81199 -0.52608 2505 ft 111 kts 279°
2026-04-27 20:24 50.81258 -0.53827 2500 ft 112 kts 279°
2026-04-27 20:24 50.81287 -0.55060 2496 ft 113 kts 273°
2026-04-27 20:24 50.81249 -0.56298 2481 ft 112 kts 273°
2026-04-27 20:24 50.81212 -0.57521 2490 ft 111 kts 273°
2026-04-27 20:25 50.81177 -0.58741 2491 ft 111 kts 272°
2026-04-27 20:25 50.81142 -0.59954 2489 ft 110 kts 272°
2026-04-27 20:25 50.81108 -0.61164 2497 ft 110 kts 272°
2026-04-27 20:25 50.81072 -0.62383 2498 ft 111 kts 272°
2026-04-27 20:26 50.81039 -0.63595 2500 ft 112 kts 272°
2026-04-27 20:26 50.81004 -0.64825 2501 ft 112 kts 272°
2026-04-27 20:26 50.80969 -0.66064 2509 ft 113 kts 272°
2026-04-27 20:26 50.80933 -0.67316 2497 ft 114 kts 272°
2026-04-27 20:27 50.80893 -0.68568 2493 ft 114 kts 272°
2026-04-27 20:27 50.80858 -0.69812 2488 ft 113 kts 272°
2026-04-27 20:27 50.80820 -0.71053 2498 ft 113 kts 272°
2026-04-27 20:27 50.80783 -0.72295 2482 ft 112 kts 272°
2026-04-27 20:28 50.80746 -0.73522 2486 ft 111 kts 272°
2026-04-27 20:28 50.80708 -0.74744 2489 ft 111 kts 272°
2026-04-27 20:28 50.80672 -0.75960 2498 ft 111 kts 272°
2026-04-27 20:28 50.80649 -0.76766 2500 ft 111 kts 273°
2026-04-27 20:29 50.80600 -0.78406 2508 ft 112 kts 273°
2026-04-27 20:29 50.80565 -0.79645 2507 ft 113 kts 272°
2026-04-27 20:29 50.80528 -0.80872 2500 ft 113 kts 272°
2026-04-27 20:29 50.80491 -0.82111 2502 ft 113 kts 273°
2026-04-27 20:30 50.80454 -0.83362 2514 ft 115 kts 272°
2026-04-27 20:30 50.80417 -0.84626 2506 ft 115 kts 272°
2026-04-27 20:30 50.80379 -0.85890 2497 ft 114 kts 272°
2026-04-27 20:30 50.80338 -0.87138 2501 ft 113 kts 272°
2026-04-27 20:31 50.80299 -0.88387 2504 ft 114 kts 272°
2026-04-27 20:31 50.80261 -0.89623 2493 ft 114 kts 272°
2026-04-27 20:31 50.80222 -0.90864 2495 ft 112 kts 273°
2026-04-27 20:31 50.80182 -0.92097 2494 ft 112 kts 272°
2026-04-27 20:32 50.80143 -0.93322 2488 ft 111 kts 272°
2026-04-27 20:32 50.80109 -0.94544 2490 ft 111 kts 275°
2026-04-27 20:32 50.80069 -0.95769 2496 ft 112 kts 275°
2026-04-27 20:32 50.80027 -0.96999 2506 ft 113 kts 274°
2026-04-27 20:33 50.79986 -0.98233 2515 ft 115 kts 275°
2026-04-27 20:33 50.79948 -0.99501 2507 ft 116 kts 274°
2026-04-27 20:33 50.79907 -1.00773 2500 ft 116 kts 274°
2026-04-27 20:33 50.79865 -1.02040 2499 ft 115 kts 274°
2026-04-27 20:34 50.79823 -1.03301 2499 ft 115 kts 275°
2026-04-27 20:34 50.79782 -1.04566 2498 ft 115 kts 274°
2026-04-27 20:34 50.79740 -1.05830 2505 ft 115 kts 275°
2026-04-27 20:34 50.79702 -1.07101 2502 ft 116 kts 274°
2026-04-27 20:35 50.79660 -1.08377 2506 ft 117 kts 274°
2026-04-27 20:35 50.79608 -1.09661 2506 ft 119 kts 268°
2026-04-27 20:35 50.79228 -1.10838 2503 ft 125 kts 227°
2026-04-27 20:35 50.78448 -1.11424 2497 ft 126 kts 193°
2026-04-27 20:36 50.77621 -1.11842 2497 ft 125 kts 209°
2026-04-27 20:36 50.76888 -1.12563 2499 ft 124 kts 214°
2026-04-27 20:36 50.76174 -1.13288 2501 ft 123 kts 215°
2026-04-27 20:36 50.75457 -1.14032 2501 ft 123 kts 216°
2026-04-27 20:37 50.74742 -1.14783 2502 ft 123 kts 216°
2026-04-27 20:37 50.74027 -1.15538 2505 ft 124 kts 215°
2026-04-27 20:37 50.73286 -1.16259 2426 ft 127 kts 213°
2026-04-27 20:37 50.72489 -1.16931 2255 ft 134 kts 202°
2026-04-27 20:38 50.71588 -1.17448 2030 ft 138 kts 199°
2026-04-27 20:38 50.70690 -1.17923 1816 ft 133 kts 200°
2026-04-27 20:38 50.69828 -1.18381 1625 ft 131 kts 198°
2026-04-27 20:38 50.69000 -1.18774 1507 ft 120 kts 197°
2026-04-27 20:39 50.68217 -1.18977 1322 ft 113 kts 171°
2026-04-27 20:39 50.67459 -1.18886 1201 ft 107 kts 189°
2026-04-27 20:39 50.66828 -1.19452 1094 ft 106 kts 224°
2026-04-27 20:39 50.66306 -1.20294 1031 ft 107 kts 232°
2026-04-27 20:40 50.65828 -1.21169 1017 ft 99 kts 232°
2026-04-27 20:40 50.65407 -1.21951 1009 ft 91 kts 232°
2026-04-27 20:40 50.64856 -1.22327 992 ft 95 kts 160°
2026-04-27 20:40 50.64384 -1.21599 1034 ft 92 kts 126°
2026-04-27 20:41 50.64057 -1.20765 960 ft 85 kts 97°
2026-04-27 20:41 50.64273 -1.19909 706 ft 84 kts 51°
2026-04-27 20:41 50.64670 -1.19243 420 ft 85 kts 47°
2026-04-27 20:41 50.65089 -1.18565 62 ft 82 kts 48°
2026-04-27 20:42 50.65392 -1.18071 52 ft 39 kts 43°
2026-04-27 20:42 50.65478 -1.17892 52 ft 11 kts 159°
2026-04-27 20:42 50.65436 -1.17880 49 ft 9 kts 223°
2026-04-27 20:42 50.65407 -1.17929 49 ft 5 kts 228°
2026-04-27 20:43 50.65365 -1.18004 50 ft 12 kts 227°
2026-04-27 20:43 50.65282 -1.18135 51 ft 14 kts 225°
2026-04-27 20:43 50.65231 -1.18212 49 ft 16 kts 224°
2026-04-27 20:43 50.65158 -1.18345 49 ft 16 kts 226°
2026-04-27 20:44 50.65081 -1.18473 47 ft 17 kts 226°
2026-04-27 20:44 50.65013 -1.18586 48 ft 11 kts 236°
2026-04-27 20:44 50.64985 -1.18661 49 ft 7 kts 202°
2026-04-27 20:44 50.64966 -1.18621 50 ft 0 kts 45°